owner,sensor,date,latitude,longitude,vertical_datum,wind_speed,wind_to_direction,wind_speed_of_gust,qcFlag 
TCOON,ioos:station:TCOON:003:1,2011-12-01T00:00:00Z,26.8015,-97.4706,0.0,3.6,40.0,4.2,'11111222,11111222,11111222' 
TCOON,ioos:station:TCOON:003:1,2011-12-01T01:00:00Z,26.8015,-97.4706,0.0,2.8,73.0,3.1,'11111222,11111222,11111222' 
TCOON,ioos:station:TCOON:003:1,2011-12-01T02:00:00Z,26.8015,-97.4706,0.0,3.1,89.0,3.5,'11111222,11111222,11111222' 
TCOON,ioos:station:TCOON:003:1,2011-12-01T03:00:00Z,26.8015,-97.4706,0.0,2.8,94.0,3.2,'11111222,11111222,11111222' 
TCOON,ioos:station:TCOON:003:1,2011-12-01T04:00:00Z,26.8015,-97.4706,0.0,2.9,117.0,3.2,'11111222,11111222,11111222' 
TCOON,ioos:station:TCOON:003:1,2011-12-01T05:00:00Z,26.8015,-97.4706,0.0,4.3,114.0,4.9,'11111222,11111222,11111222' 
TCOON,ioos:station:TCOON:003:1,2011-12-01T06:00:00Z,26.8015,-97.4706,0.0,4.3,115.0,5.0,'11111222,11111222,11111222' 
TCOON,ioos:station:TCOON:003:1,2011-12-01T07:00:00Z,26.8015,-97.4706,0.0,3.1,95.0,3.6,'11111222,11111222,11111222' 
TCOON,ioos:station:TCOON:003:1,2011-12-01T08:00:00Z,26.8015,-97.4706,0.0,3.6,95.0,4.2,'11111222,11111222,11111222' 
TCOON,ioos:station:TCOON:003:1,2011-12-01T09:00:00Z,26.8015,-97.4706,0.0,6.0,147.0,6.7,'11111222,11111222,11111222' 
TCOON,ioos:station:TCOON:003:1,2011-12-01T10:00:00Z,26.8015,-97.4706,0.0,3.5,151.0,3.8,'11111222,11111222,11111222' 
TCOON,ioos:station:TCOON:003:1,2011-12-01T11:00:00Z,26.8015,-97.4706,0.0,2.5,147.0,2.8,'11111222,11111222,11111222' 
TCOON,ioos:station:TCOON:003:1,2011-12-01T12:00:00Z,26.8015,-97.4706,0.0,2.6,118.0,2.9,'11111222,11111222,11111222' 
TCOON,ioos:station:TCOON:003:1,2011-12-01T13:00:00Z,26.8015,-97.4706,0.0,1.9,171.0,2.1,'11111222,11111222,11111222' 
TCOON,ioos:station:TCOON:003:1,2011-12-01T14:00:00Z,26.8015,-97.4706,0.0,3.6,156.0,3.8,'11111222,11111222,11111222' 
TCOON,ioos:station:TCOON:003:1,2011-12-01T15:00:00Z,26.8015,-97.4706,0.0,3.7,135.0,4.2,'11111222,11111222,11111222' 
TCOON,ioos:station:TCOON:003:1,2011-12-01T16:00:00Z,26.8015,-97.4706,0.0,5.3,138.0,6.0,'11111222,11111222,11111222' 
TCOON,ioos:station:TCOON:003:1,2011-12-01T17:00:00Z,26.8015,-97.4706,0.0,7.7,144.0,8.7,'11111222,11111222,11111222' 
TCOON,ioos:station:TCOON:003:1,2011-12-01T18:00:00Z,26.8015,-97.4706,0.0,10.5,138.0,12.9,'11111222,11111222,11111222' 
TCOON,ioos:station:TCOON:003:1,2011-12-01T19:00:00Z,26.8015,-97.4706,0.0,11.1,142.0,13.1,'11111222,11111222,11111222' 
TCOON,ioos:station:TCOON:003:1,2011-12-01T20:00:00Z,26.8015,-97.4706,0.0,11.3,147.0,13.1,'11111222,11111222,11111222' 
TCOON,ioos:station:TCOON:003:1,2011-12-01T21:00:00Z,26.8015,-97.4706,0.0,10.1,151.0,11.4,'11111222,11111222,11111222' 
TCOON,ioos:station:TCOON:003:1,2011-12-01T22:00:00Z,26.8015,-97.4706,0.0,8.4,148.0,9.5,'11111222,11111222,11111222' 
TCOON,ioos:station:TCOON:003:1,2011-12-01T23:00:00Z,26.8015,-97.4706,0.0,6.9,138.0,8.5,'11111222,11111222,11111222' 
TCOON,ioos:station:TCOON:003:1,2011-12-02T00:00:00Z,26.8015,-97.4706,0.0,6.3,120.0,7.1,'11111222,11111222,11111222' 
TCOON,ioos:station:TCOON:003:1,2011-12-02T01:00:00Z,26.8015,-97.4706,0.0,5.8,126.0,6.9,'11111222,11111222,11111222' 
TCOON,ioos:station:TCOON:003:1,2011-12-02T02:00:00Z,26.8015,-97.4706,0.0,5.5,121.0,6.3,'11111222,11111222,11111222' 
TCOON,ioos:station:TCOON:003:1,2011-12-02T03:00:00Z,26.8015,-97.4706,0.0,5.6,131.0,6.7,'11111222,11111222,11111222' 
TCOON,ioos:station:TCOON:003:1,2011-12-02T04:00:00Z,26.8015,-97.4706,0.0,3.3,140.0,3.6,'11111222,11111222,11111222' 
TCOON,ioos:station:TCOON:003:1,2011-12-02T05:00:00Z,26.8015,-97.4706,0.0,2.0,149.0,2.2,'11111222,11111222,11111222' 
TCOON,ioos:station:TCOON:003:1,2011-12-02T06:00:00Z,26.8015,-97.4706,0.0,4.1,125.0,4.7,'11111222,11111222,11111222' 
TCOON,ioos:station:TCOON:003:1,2011-12-02T07:00:00Z,26.8015,-97.4706,0.0,1.9,128.0,2.4,'11111222,11111222,11111222' 
TCOON,ioos:station:TCOON:003:1,2011-12-02T08:00:00Z,26.8015,-97.4706,0.0,2.0,90.0,2.2,'11111222,11111222,11111222' 
TCOON,ioos:station:TCOON:003:1,2011-12-02T09:00:00Z,26.8015,-97.4706,0.0,2.1,93.0,2.4,'11111222,11111222,11111222' 
TCOON,ioos:station:TCOON:003:1,2011-12-02T10:00:00Z,26.8015,-97.4706,0.0,3.2,98.0,3.6,'11111222,11111222,11111222' 
TCOON,ioos:station:TCOON:003:1,2011-12-02T11:00:00Z,26.8015,-97.4706,0.0,4.4,95.0,5.1,'11111222,11111222,11111222' 
TCOON,ioos:station:TCOON:003:1,2011-12-02T12:00:00Z,26.8015,-97.4706,0.0,6.1,108.0,7.4,'11111222,11111222,11111222' 
TCOON,ioos:station:TCOON:003:1,2011-12-02T13:00:00Z,26.8015,-97.4706,0.0,9.6,117.0,11.4,'11111222,11111222,11111222' 
TCOON,ioos:station:TCOON:003:1,2011-12-02T14:00:00Z,26.8015,-97.4706,0.0,7.3,127.0,8.4,'11111222,11111222,11111222' 
TCOON,ioos:station:TCOON:003:1,2011-12-02T15:00:00Z,26.8015,-97.4706,0.0,7.0,134.0,8.8,'11111222,11111222,11111222' 
TCOON,ioos:station:TCOON:003:1,2011-12-02T16:00:00Z,26.8015,-97.4706,0.0,6.4,118.0,7.8,'11111222,11111222,11111222' 
TCOON,ioos:station:TCOON:003:1,2011-12-02T17:00:00Z,26.8015,-97.4706,0.0,4.8,131.0,5.3,'11111222,11111222,11111222' 
TCOON,ioos:station:TCOON:003:1,2011-12-02T18:00:00Z,26.8015,-97.4706,0.0,7.2,116.0,9.2,'11111222,11111222,11111222' 
TCOON,ioos:station:TCOON:003:1,2011-12-02T19:00:00Z,26.8015,-97.4706,0.0,8.7,116.0,10.0,'11111222,11111222,11111222' 
TCOON,ioos:station:TCOON:003:1,2011-12-02T20:00:00Z,26.8015,-97.4706,0.0,8.8,118.0,11.2,'11111222,11111222,11111222' 
TCOON,ioos:station:TCOON:003:1,2011-12-02T21:00:00Z,26.8015,-97.4706,0.0,8.3,116.0,10.3,'11111222,11111222,11111222' 
TCOON,ioos:station:TCOON:003:1,2011-12-02T22:00:00Z,26.8015,-97.4706,0.0,9.4,114.0,11.5,'11111222,11111222,11111222' 
TCOON,ioos:station:TCOON:003:1,2011-12-02T23:00:00Z,26.8015,-97.4706,0.0,7.0,111.0,8.0,'11111222,11111222,11111222' 
TCOON,ioos:station:TCOON:003:1,2011-12-03T00:00:00Z,26.8015,-97.4706,0.0,8.2,109.0,10.1,'11111222,11111222,11111222' 
TCOON,ioos:station:TCOON:003:1,2011-12-03T01:00:00Z,26.8015,-97.4706,0.0,7.4,113.0,9.1,'11111222,11111222,11111222' 
TCOON,ioos:station:TCOON:003:1,2011-12-03T02:00:00Z,26.8015,-97.4706,0.0,7.4,113.0,8.7,'11111222,11111222,11111222' 
TCOON,ioos:station:TCOON:003:1,2011-12-03T03:00:00Z,26.8015,-97.4706,0.0,10.6,120.0,12.7,'11111222,11111222,11111222' 
TCOON,ioos:station:TCOON:003:1,2011-12-03T04:00:00Z,26.8015,-97.4706,0.0,9.1,117.0,11.0,'11111222,11111222,11111222' 
TCOON,ioos:station:TCOON:003:1,2011-12-03T05:00:00Z,26.8015,-97.4706,0.0,7.3,122.0,8.5,'11111222,11111222,11111222' 
TCOON,ioos:station:TCOON:003:1,2011-12-03T06:00:00Z,26.8015,-97.4706,0.0,6.6,116.0,7.4,'11111222,11111222,11111222' 
TCOON,ioos:station:TCOON:003:1,2011-12-03T07:00:00Z,26.8015,-97.4706,0.0,6.6,124.0,7.5,'11111222,11111222,11111222' 
TCOON,ioos:station:TCOON:003:1,2011-12-03T08:00:00Z,26.8015,-97.4706,0.0,8.9,134.0,10.3,'11111222,11111222,11111222' 
TCOON,ioos:station:TCOON:003:1,2011-12-03T09:00:00Z,26.8015,-97.4706,0.0,10.3,149.0,13.5,'11111222,11111222,11111222' 
TCOON,ioos:station:TCOON:003:1,2011-12-03T10:00:00Z,26.8015,-97.4706,0.0,9.4,138.0,10.5,'11111222,11111222,11111222' 
TCOON,ioos:station:TCOON:003:1,2011-12-03T11:00:00Z,26.8015,-97.4706,0.0,10.4,135.0,12.1,'11111222,11111222,11111222' 
TCOON,ioos:station:TCOON:003:1,2011-12-03T12:00:00Z,26.8015,-97.4706,0.0,9.1,133.0,10.8,'11111222,11111222,11111222' 
TCOON,ioos:station:TCOON:003:1,2011-12-03T13:00:00Z,26.8015,-97.4706,0.0,6.7,168.0,7.4,'11111222,11111222,11111222' 
TCOON,ioos:station:TCOON:003:1,2011-12-03T14:00:00Z,26.8015,-97.4706,0.0,5.8,151.0,6.7,'11111222,11111222,11111222' 
TCOON,ioos:station:TCOON:003:1,2011-12-03T15:00:00Z,26.8015,-97.4706,0.0,10.3,148.0,12.0,'11111222,11111222,11111222' 
TCOON,ioos:station:TCOON:003:1,2011-12-03T16:00:00Z,26.8015,-97.4706,0.0,6.2,149.0,7.2,'11111222,11111222,11111222' 
TCOON,ioos:station:TCOON:003:1,2011-12-03T17:00:00Z,26.8015,-97.4706,0.0,8.4,141.0,9.8,'11111222,11111222,11111222' 
TCOON,ioos:station:TCOON:003:1,2011-12-03T18:00:00Z,26.8015,-97.4706,0.0,11.8,140.0,13.9,'11111222,11111222,11111222' 
TCOON,ioos:station:TCOON:003:1,2011-12-03T19:00:00Z,26.8015,-97.4706,0.0,11.5,143.0,13.7,'11111222,11111222,11111222' 
TCOON,ioos:station:TCOON:003:1,2011-12-03T20:00:00Z,26.8015,-97.4706,0.0,11.7,139.0,14.3,'11111222,11111222,11111222' 
TCOON,ioos:station:TCOON:003:1,2011-12-03T21:00:00Z,26.8015,-97.4706,0.0,12.5,138.0,15.3,'11111222,11111222,11111222' 
TCOON,ioos:station:TCOON:003:1,2011-12-03T22:00:00Z,26.8015,-97.4706,0.0,10.5,136.0,11.7,'11111222,11111222,11111222' 
TCOON,ioos:station:TCOON:003:1,2011-12-03T23:00:00Z,26.8015,-97.4706,0.0,10.0,131.0,11.4,'11111222,11111222,11111222' 
TCOON,ioos:station:TCOON:003:1,2011-12-04T00:00:00Z,26.8015,-97.4706,0.0,8.3,137.0,9.5,'11111222,11111222,11111222' 
TCOON,ioos:station:TCOON:003:1,2011-12-04T01:00:00Z,26.8015,-97.4706,0.0,7.2,144.0,8.4,'11111222,11111222,11111222' 
TCOON,ioos:station:TCOON:003:1,2011-12-04T02:00:00Z,26.8015,-97.4706,0.0,8.4,139.0,9.9,'11111222,11111222,11111222' 
TCOON,ioos:station:TCOON:003:1,2011-12-04T03:00:00Z,26.8015,-97.4706,0.0,6.5,143.0,7.6,'11111222,11111222,11111222' 
TCOON,ioos:station:TCOON:003:1,2011-12-04T04:00:00Z,26.8015,-97.4706,0.0,4.4,156.0,5.1,'11111222,11111222,11111222' 
TCOON,ioos:station:TCOON:003:1,2011-12-04T05:00:00Z,26.8015,-97.4706,0.0,4.3,146.0,4.7,'11111222,11111222,11111222' 
TCOON,ioos:station:TCOON:003:1,2011-12-04T06:00:00Z,26.8015,-97.4706,0.0,4.7,132.0,5.6,'11111222,11111222,11111222' 
TCOON,ioos:station:TCOON:003:1,2011-12-04T07:00:00Z,26.8015,-97.4706,0.0,4.5,107.0,4.9,'11111222,11111222,11111222' 
TCOON,ioos:station:TCOON:003:1,2011-12-04T08:00:00Z,26.8015,-97.4706,0.0,4.3,127.0,4.9,'11111222,11111222,11111222' 
TCOON,ioos:station:TCOON:003:1,2011-12-04T09:00:00Z,26.8015,-97.4706,0.0,5.2,159.0,6.1,'11111222,11111222,11111222' 
TCOON,ioos:station:TCOON:003:1,2011-12-04T10:00:00Z,26.8015,-97.4706,0.0,6.5,127.0,7.3,'11111222,11111222,11111222' 
TCOON,ioos:station:TCOON:003:1,2011-12-04T11:00:00Z,26.8015,-97.4706,0.0,6.0,128.0,6.8,'11111222,11111222,11111222' 
TCOON,ioos:station:TCOON:003:1,2011-12-04T12:00:00Z,26.8015,-97.4706,0.0,6.3,136.0,7.2,'11111222,11111222,11111222' 
TCOON,ioos:station:TCOON:003:1,2011-12-04T13:00:00Z,26.8015,-97.4706,0.0,6.7,139.0,7.5,'11111222,11111222,11111222' 
TCOON,ioos:station:TCOON:003:1,2011-12-04T14:00:00Z,26.8015,-97.4706,0.0,6.4,138.0,7.6,'11111222,11111222,11111222' 
TCOON,ioos:station:TCOON:003:1,2011-12-04T15:00:00Z,26.8015,-97.4706,0.0,5.7,175.0,6.7,'11111222,11111222,11111222' 
TCOON,ioos:station:TCOON:003:1,2011-12-04T16:00:00Z,26.8015,-97.4706,0.0,7.8,137.0,9.0,'11111222,11111222,11111222' 
TCOON,ioos:station:TCOON:003:1,2011-12-04T17:00:00Z,26.8015,-97.4706,0.0,9.4,140.0,11.7,'11111222,11111222,11111222' 
TCOON,ioos:station:TCOON:003:1,2011-12-04T18:00:00Z,26.8015,-97.4706,0.0,8.1,140.0,9.2,'11111222,11111222,11111222' 
TCOON,ioos:station:TCOON:003:1,2011-12-04T19:00:00Z,26.8015,-97.4706,0.0,9.2,138.0,10.5,'11111222,11111222,11111222' 
TCOON,ioos:station:TCOON:003:1,2011-12-04T20:00:00Z,26.8015,-97.4706,0.0,9.5,138.0,10.7,'11111222,11111222,11111222' 
TCOON,ioos:station:TCOON:003:1,2011-12-04T21:00:00Z,26.8015,-97.4706,0.0,9.9,139.0,11.3,'11111222,11111222,11111222' 
TCOON,ioos:station:TCOON:003:1,2011-12-04T22:00:00Z,26.8015,-97.4706,0.0,9.2,136.0,10.9,'11111222,11111222,11111222' 
TCOON,ioos:station:TCOON:003:1,2011-12-04T23:00:00Z,26.8015,-97.4706,0.0,7.6,136.0,8.7,'11111222,11111222,11111222' 
TCOON,ioos:station:TCOON:003:1,2011-12-05T00:00:00Z,26.8015,-97.4706,0.0,5.7,133.0,6.4,'11111222,11111222,11111222' 
TCOON,ioos:station:TCOON:003:1,2011-12-05T01:00:00Z,26.8015,-97.4706,0.0,5.3,115.0,5.9,'11111222,11111222,11111222' 
TCOON,ioos:station:TCOON:003:1,2011-12-05T02:00:00Z,26.8015,-97.4706,0.0,5.1,118.0,6.1,'11111222,11111222,11111222' 
TCOON,ioos:station:TCOON:003:1,2011-12-05T03:00:00Z,26.8015,-97.4706,0.0,5.2,123.0,5.7,'11111222,11111222,11111222' 
TCOON,ioos:station:TCOON:003:1,2011-12-05T04:00:00Z,26.8015,-97.4706,0.0,4.7,137.0,5.2,'11111222,11111222,11111222' 
TCOON,ioos:station:TCOON:003:1,2011-12-05T05:00:00Z,26.8015,-97.4706,0.0,5.1,272.0,6.0,'11111222,11111222,11111222' 
TCOON,ioos:station:TCOON:003:1,2011-12-05T06:00:00Z,26.8015,-97.4706,0.0,5.6,302.0,6.1,'11111222,11111222,11111222' 
TCOON,ioos:station:TCOON:003:1,2011-12-05T07:00:00Z,26.8015,-97.4706,0.0,5.3,292.0,6.1,'11111222,11111222,11111222' 
TCOON,ioos:station:TCOON:003:1,2011-12-05T08:00:00Z,26.8015,-97.4706,0.0,4.8,291.0,5.2,'11111222,11111222,11111222' 
TCOON,ioos:station:TCOON:003:1,2011-12-05T09:00:00Z,26.8015,-97.4706,0.0,8.6,286.0,10.1,'11111222,11111222,11111222' 
TCOON,ioos:station:TCOON:003:1,2011-12-05T10:00:00Z,26.8015,-97.4706,0.0,10.9,296.0,12.2,'11111222,11111222,11111222' 
TCOON,ioos:station:TCOON:003:1,2011-12-05T11:00:00Z,26.8015,-97.4706,0.0,13.0,299.0,15.9,'11111222,11111222,11111222' 
TCOON,ioos:station:TCOON:003:1,2011-12-05T12:00:00Z,26.8015,-97.4706,0.0,10.6,315.0,12.8,'11111222,11111222,11111222' 
TCOON,ioos:station:TCOON:003:1,2011-12-05T13:00:00Z,26.8015,-97.4706,0.0,12.1,321.0,13.7,'11111222,11111222,11111222' 
TCOON,ioos:station:TCOON:003:1,2011-12-05T14:00:00Z,26.8015,-97.4706,0.0,11.9,321.0,14.0,'11111222,11111222,11111222' 
TCOON,ioos:station:TCOON:003:1,2011-12-05T15:00:00Z,26.8015,-97.4706,0.0,10.4,326.0,12.8,'11111222,11111222,11111222' 
TCOON,ioos:station:TCOON:003:1,2011-12-05T16:00:00Z,26.8015,-97.4706,0.0,9.5,312.0,10.7,'11111222,11111222,11111222' 
TCOON,ioos:station:TCOON:003:1,2011-12-05T17:00:00Z,26.8015,-97.4706,0.0,9.6,322.0,10.8,'11111222,11111222,11111222' 
TCOON,ioos:station:TCOON:003:1,2011-12-05T18:00:00Z,26.8015,-97.4706,0.0,9.1,318.0,10.7,'11111222,11111222,11111222' 
TCOON,ioos:station:TCOON:003:1,2011-12-05T19:00:00Z,26.8015,-97.4706,0.0,10.1,336.0,11.6,'11111222,11111222,11111222' 
TCOON,ioos:station:TCOON:003:1,2011-12-05T20:00:00Z,26.8015,-97.4706,0.0,9.2,346.0,12.3,'11111222,11111222,11111222' 
TCOON,ioos:station:TCOON:003:1,2011-12-05T21:00:00Z,26.8015,-97.4706,0.0,9.3,344.0,10.7,'11111222,11111222,11111222' 
TCOON,ioos:station:TCOON:003:1,2011-12-05T22:00:00Z,26.8015,-97.4706,0.0,9.2,351.0,10.6,'11111222,11111222,11111222' 
TCOON,ioos:station:TCOON:003:1,2011-12-05T23:00:00Z,26.8015,-97.4706,0.0,10.3,349.0,11.5,'11111222,11111222,11111222' 
TCOON,ioos:station:TCOON:003:1,2011-12-06T00:00:00Z,26.8015,-97.4706,0.0,9.6,346.0,11.2,'11111222,11111222,11111222' 
TCOON,ioos:station:TCOON:003:1,2011-12-06T01:00:00Z,26.8015,-97.4706,0.0,9.8,332.0,10.7,'11111222,11111222,11111222' 
TCOON,ioos:station:TCOON:003:1,2011-12-06T02:00:00Z,26.8015,-97.4706,0.0,9.2,349.0,10.4,'11111222,11111222,11111222' 
TCOON,ioos:station:TCOON:003:1,2011-12-06T03:00:00Z,26.8015,-97.4706,0.0,8.7,337.0,9.8,'11111222,11111222,11111222' 
TCOON,ioos:station:TCOON:003:1,2011-12-06T04:00:00Z,26.8015,-97.4706,0.0,9.6,335.0,11.2,'11111222,11111222,11111222' 
TCOON,ioos:station:TCOON:003:1,2011-12-06T05:00:00Z,26.8015,-97.4706,0.0,7.8,332.0,8.9,'11111222,11111222,11111222' 
TCOON,ioos:station:TCOON:003:1,2011-12-06T06:00:00Z,26.8015,-97.4706,0.0,8.5,336.0,9.7,'11111222,11111222,11111222' 
TCOON,ioos:station:TCOON:003:1,2011-12-06T07:00:00Z,26.8015,-97.4706,0.0,9.2,331.0,11.0,'11111222,11111222,11111222' 
TCOON,ioos:station:TCOON:003:1,2011-12-06T08:00:00Z,26.8015,-97.4706,0.0,10.3,332.0,12.1,'11111222,11111222,11111222' 
TCOON,ioos:station:TCOON:003:1,2011-12-06T09:00:00Z,26.8015,-97.4706,0.0,10.4,344.0,11.8,'11111222,11111222,11111222' 
TCOON,ioos:station:TCOON:003:1,2011-12-06T10:00:00Z,26.8015,-97.4706,0.0,8.6,337.0,9.8,'11111222,11111222,11111222' 
TCOON,ioos:station:TCOON:003:1,2011-12-06T11:00:00Z,26.8015,-97.4706,0.0,8.9,343.0,10.1,'11111222,11111222,11111222' 
TCOON,ioos:station:TCOON:003:1,2011-12-06T12:00:00Z,26.8015,-97.4706,0.0,9.7,341.0,11.5,'11111222,11111222,11111222' 
TCOON,ioos:station:TCOON:003:1,2011-12-06T13:00:00Z,26.8015,-97.4706,0.0,8.7,329.0,10.0,'11111222,11111222,11111222' 
TCOON,ioos:station:TCOON:003:1,2011-12-06T14:00:00Z,26.8015,-97.4706,0.0,9.1,325.0,10.3,'11111222,11111222,11111222' 
TCOON,ioos:station:TCOON:003:1,2011-12-06T15:00:00Z,26.8015,-97.4706,0.0,9.3,324.0,10.3,'11111222,11111222,11111222' 
TCOON,ioos:station:TCOON:003:1,2011-12-06T16:00:00Z,26.8015,-97.4706,0.0,9.2,321.0,11.0,'11111222,11111222,11111222' 
TCOON,ioos:station:TCOON:003:1,2011-12-06T17:00:00Z,26.8015,-97.4706,0.0,8.5,309.0,9.9,'11111222,11111222,11111222' 
TCOON,ioos:station:TCOON:003:1,2011-12-06T18:00:00Z,26.8015,-97.4706,0.0,9.5,311.0,12.0,'11111222,11111222,11111222' 
TCOON,ioos:station:TCOON:003:1,2011-12-06T19:00:00Z,26.8015,-97.4706,0.0,8.6,326.0,10.0,'11111222,11111222,11111222' 
TCOON,ioos:station:TCOON:003:1,2011-12-06T20:00:00Z,26.8015,-97.4706,0.0,9.0,310.0,10.3,'11111222,11111222,11111222' 
TCOON,ioos:station:TCOON:003:1,2011-12-06T21:00:00Z,26.8015,-97.4706,0.0,7.7,314.0,9.3,'11111222,11111222,11111222' 
TCOON,ioos:station:TCOON:003:1,2011-12-06T22:00:00Z,26.8015,-97.4706,0.0,7.2,320.0,8.2,'11111222,11111222,11111222' 
TCOON,ioos:station:TCOON:003:1,2011-12-06T23:00:00Z,26.8015,-97.4706,0.0,5.9,331.0,6.7,'11111222,11111222,11111222' 
TCOON,ioos:station:TCOON:003:1,2011-12-07T00:00:00Z,26.8015,-97.4706,0.0,3.5,327.0,4.0,'11111222,11111222,11111222' 
TCOON,ioos:station:TCOON:003:1,2011-12-07T01:00:00Z,26.8015,-97.4706,0.0,2.5,324.0,3.0,'11111222,11111222,11111222' 
TCOON,ioos:station:TCOON:003:1,2011-12-07T02:00:00Z,26.8015,-97.4706,0.0,4.1,317.0,4.8,'11111222,11111222,11111222' 
TCOON,ioos:station:TCOON:003:1,2011-12-07T03:00:00Z,26.8015,-97.4706,0.0,5.3,344.0,6.2,'11111222,11111222,11111222' 
TCOON,ioos:station:TCOON:003:1,2011-12-07T04:00:00Z,26.8015,-97.4706,0.0,7.3,342.0,8.7,'11111222,11111222,11111222' 
TCOON,ioos:station:TCOON:003:1,2011-12-07T05:00:00Z,26.8015,-97.4706,0.0,6.8,345.0,7.6,'11111222,11111222,11111222' 
TCOON,ioos:station:TCOON:003:1,2011-12-07T06:00:00Z,26.8015,-97.4706,0.0,7.3,340.0,8.3,'11111222,11111222,11111222' 
TCOON,ioos:station:TCOON:003:1,2011-12-07T07:00:00Z,26.8015,-97.4706,0.0,7.0,331.0,8.2,'11111222,11111222,11111222' 
TCOON,ioos:station:TCOON:003:1,2011-12-07T08:00:00Z,26.8015,-97.4706,0.0,6.4,332.0,7.3,'11111222,11111222,11111222' 
TCOON,ioos:station:TCOON:003:1,2011-12-07T09:00:00Z,26.8015,-97.4706,0.0,4.1,312.0,5.4,'11111222,11111222,11111222' 
TCOON,ioos:station:TCOON:003:1,2011-12-07T10:00:00Z,26.8015,-97.4706,0.0,3.4,290.0,4.0,'11111222,11111222,11111222' 
TCOON,ioos:station:TCOON:003:1,2011-12-07T11:00:00Z,26.8015,-97.4706,0.0,4.4,293.0,5.0,'11111222,11111222,11111222' 
TCOON,ioos:station:TCOON:003:1,2011-12-07T12:00:00Z,26.8015,-97.4706,0.0,4.5,299.0,5.2,'11111222,11111222,11111222' 
TCOON,ioos:station:TCOON:003:1,2011-12-07T13:00:00Z,26.8015,-97.4706,0.0,4.6,297.0,5.1,'11111222,11111222,11111222' 
TCOON,ioos:station:TCOON:003:1,2011-12-07T14:00:00Z,26.8015,-97.4706,0.0,5.3,304.0,5.8,'11111222,11111222,11111222' 
TCOON,ioos:station:TCOON:003:1,2011-12-07T15:00:00Z,26.8015,-97.4706,0.0,6.4,324.0,7.6,'11111222,11111222,11111222' 
TCOON,ioos:station:TCOON:003:1,2011-12-07T16:00:00Z,26.8015,-97.4706,0.0,6.8,342.0,8.3,'11111222,11111222,11111222' 
TCOON,ioos:station:TCOON:003:1,2011-12-07T17:00:00Z,26.8015,-97.4706,0.0,5.5,339.0,6.6,'11111222,11111222,11111222' 
TCOON,ioos:station:TCOON:003:1,2011-12-07T18:00:00Z,26.8015,-97.4706,0.0,4.4,347.0,5.6,'11111222,11111222,11111222' 
TCOON,ioos:station:TCOON:003:1,2011-12-07T19:00:00Z,26.8015,-97.4706,0.0,3.7,20.0,4.8,'11111222,11111222,11111222' 
TCOON,ioos:station:TCOON:003:1,2011-12-07T20:00:00Z,26.8015,-97.4706,0.0,2.0,21.0,4.9,'11111222,11111222,11111222' 
TCOON,ioos:station:TCOON:003:1,2011-12-07T21:00:00Z,26.8015,-97.4706,0.0,2.5,23.0,3.7,'11111222,11111222,11111222' 
TCOON,ioos:station:TCOON:003:1,2011-12-07T22:00:00Z,26.8015,-97.4706,0.0,4.0,18.0,4.7,'11111222,11111222,11111222' 
TCOON,ioos:station:TCOON:003:1,2011-12-07T23:00:00Z,26.8015,-97.4706,0.0,3.3,44.0,3.9,'11111222,11111222,11111222' 
TCOON,ioos:station:TCOON:003:1,2011-12-08T00:00:00Z,26.8015,-97.4706,0.0,3.2,38.0,3.5,'11111222,11111222,11111222' 
TCOON,ioos:station:TCOON:003:1,2011-12-08T01:00:00Z,26.8015,-97.4706,0.0,3.3,53.0,3.7,'11111222,11111222,11111222' 
TCOON,ioos:station:TCOON:003:1,2011-12-08T02:00:00Z,26.8015,-97.4706,0.0,0.7,8.0,0.8,'11111222,11111222,11111222' 
TCOON,ioos:station:TCOON:003:1,2011-12-08T03:00:00Z,26.8015,-97.4706,0.0,0.8,288.0,0.9,'11111222,11111222,11111222' 
TCOON,ioos:station:TCOON:003:1,2011-12-08T04:00:00Z,26.8015,-97.4706,0.0,1.5,224.0,1.7,'11111222,11111222,11111222' 
TCOON,ioos:station:TCOON:003:1,2011-12-08T05:00:00Z,26.8015,-97.4706,0.0,2.9,257.0,3.0,'11111222,11111222,11111222' 
TCOON,ioos:station:TCOON:003:1,2011-12-08T06:00:00Z,26.8015,-97.4706,0.0,1.7,284.0,2.1,'11111222,11111222,11111222' 
TCOON,ioos:station:TCOON:003:1,2011-12-08T07:00:00Z,26.8015,-97.4706,0.0,3.2,290.0,3.5,'11111222,11111222,11111222' 
TCOON,ioos:station:TCOON:003:1,2011-12-08T08:00:00Z,26.8015,-97.4706,0.0,2.2,301.0,2.6,'11111222,11111222,11111222' 
TCOON,ioos:station:TCOON:003:1,2011-12-08T09:00:00Z,26.8015,-97.4706,0.0,2.9,307.0,3.2,'11111222,11111222,11111222' 
TCOON,ioos:station:TCOON:003:1,2011-12-08T10:00:00Z,26.8015,-97.4706,0.0,3.5,326.0,3.8,'11111222,11111222,11111222' 
TCOON,ioos:station:TCOON:003:1,2011-12-08T11:00:00Z,26.8015,-97.4706,0.0,2.9,322.0,3.3,'11111222,11111222,11111222' 
TCOON,ioos:station:TCOON:003:1,2011-12-08T12:00:00Z,26.8015,-97.4706,0.0,3.7,325.0,4.2,'11111222,11111222,11111222' 
TCOON,ioos:station:TCOON:003:1,2011-12-08T13:00:00Z,26.8015,-97.4706,0.0,5.1,344.0,5.9,'11111222,11111222,11111222' 
TCOON,ioos:station:TCOON:003:1,2011-12-08T14:00:00Z,26.8015,-97.4706,0.0,4.5,344.0,5.1,'11111222,11111222,11111222' 
TCOON,ioos:station:TCOON:003:1,2011-12-08T15:00:00Z,26.8015,-97.4706,0.0,5.6,3.0,6.5,'11111222,11111222,11111222' 
TCOON,ioos:station:TCOON:003:1,2011-12-08T16:00:00Z,26.8015,-97.4706,0.0,5.4,11.0,6.1,'11111222,11111222,11111222' 
TCOON,ioos:station:TCOON:003:1,2011-12-08T17:00:00Z,26.8015,-97.4706,0.0,4.1,13.0,4.9,'11111222,11111222,11111222' 
TCOON,ioos:station:TCOON:003:1,2011-12-08T18:00:00Z,26.8015,-97.4706,0.0,2.9,63.0,4.0,'11111222,11111222,11111222' 
TCOON,ioos:station:TCOON:003:1,2011-12-08T19:00:00Z,26.8015,-97.4706,0.0,4.5,53.0,5.8,'11111222,11111222,11111222' 
TCOON,ioos:station:TCOON:003:1,2011-12-08T20:00:00Z,26.8015,-97.4706,0.0,4.1,75.0,4.6,'11111222,11111222,11111222' 
TCOON,ioos:station:TCOON:003:1,2011-12-08T21:00:00Z,26.8015,-97.4706,0.0,3.2,100.0,3.8,'11111222,11111222,11111222' 
TCOON,ioos:station:TCOON:003:1,2011-12-08T22:00:00Z,26.8015,-97.4706,0.0,2.0,120.0,2.5,'11111222,11111222,11111222' 
TCOON,ioos:station:TCOON:003:1,2011-12-08T23:00:00Z,26.8015,-97.4706,0.0,2.3,148.0,2.4,'11111222,11111222,11111222' 
TCOON,ioos:station:TCOON:003:1,2011-12-09T00:00:00Z,26.8015,-97.4706,0.0,1.2,149.0,1.3,'11111222,11111222,11111222' 
TCOON,ioos:station:TCOON:003:1,2011-12-09T01:00:00Z,26.8015,-97.4706,0.0,1.1,144.0,1.2,'11111222,11111222,11111222' 
TCOON,ioos:station:TCOON:003:1,2011-12-09T02:00:00Z,26.8015,-97.4706,0.0,0.0,93.0,99.0,'11111222,11111222,11144222' 
TCOON,ioos:station:TCOON:003:1,2011-12-09T03:00:00Z,26.8015,-97.4706,0.0,1.2,355.0,1.3,'11111222,11111222,11111222' 
TCOON,ioos:station:TCOON:003:1,2011-12-09T04:00:00Z,26.8015,-97.4706,0.0,0.4,17.0,0.4,'11111222,11111222,11111222' 
TCOON,ioos:station:TCOON:003:1,2011-12-09T05:00:00Z,26.8015,-97.4706,0.0,1.4,18.0,1.4,'11111222,11111222,11111222' 
TCOON,ioos:station:TCOON:003:1,2011-12-09T06:00:00Z,26.8015,-97.4706,0.0,1.5,26.0,1.6,'11111222,11111222,11111222' 
TCOON,ioos:station:TCOON:003:1,2011-12-09T07:00:00Z,26.8015,-97.4706,0.0,1.5,44.0,1.7,'11111222,11111222,11111222' 
TCOON,ioos:station:TCOON:003:1,2011-12-09T08:00:00Z,26.8015,-97.4706,0.0,2.6,29.0,2.7,'11111222,11111222,11111222' 
TCOON,ioos:station:TCOON:003:1,2011-12-09T09:00:00Z,26.8015,-97.4706,0.0,2.5,51.0,2.5,'11111222,11111222,11111222' 
TCOON,ioos:station:TCOON:003:1,2011-12-09T10:00:00Z,26.8015,-97.4706,0.0,1.7,48.0,1.8,'11111222,11111222,11111222' 